Hourly Data Report for September 18, 2020

SHEARWATER RCS
NOVA SCOTIA
Current Station Operator: ECCC - MSC

44°37'47.000" N
63°30'48.000" W
24.00 m
8205092
71264
AAW

Download Data

Hourly Data (September 2020)
Hourly Data Report for September 18, 2020
TIME Temp Definition
°C
Dew Point Definition
°C
Rel Hum Definition
%
Wind Dir Definition
10's deg

Wind Spd Definition
km/h
Visibility Definition
km
Stn Press Definition
kPa
Hmdx Definition


Wind Chill Definition


Weather Definition


00:00 15.6 14.4 92 2 8   101.33     LegendNANA
01:00 15.1 13.9 93 35 3   101.34     LegendNANA
02:00 14.9 13.9 94 3 9   101.33     LegendNANA
03:00 14.3 13.4 94 4 10   101.29     LegendNANA
04:00 13.8 13.0 95 3 10   101.28     LegendNANA
05:00 13.9 12.9 94 3 10   101.30     LegendNANA
06:00 14.0 13.1 94 4 8   101.25     LegendNANA
07:00 14.2 12.9 92 2 8   101.28     LegendNANA
08:00 14.5 12.5 88 1 8   101.32     LegendNANA
09:00 15.3 12.9 86 3 6   101.32     LegendNANA
10:00 15.9 13.0 83 5 8   101.28     LegendNANA
11:00 16.6 13.2 81 4 7   101.17     LegendNANA
12:00 16.3 13.7 85 10 8   101.13     LegendNANA
13:00 16.6 14.2 85 9 10   101.07     LegendNANA
14:00 16.0 14.1 88 8 9   101.00     LegendNANA
15:00 15.5 14.1 91 8 7   100.96     LegendNANA
16:00 15.2 14.2 94 6 5   100.92     LegendNANA
17:00 14.2 12.8 91 1 16   100.91     LegendNANA
18:00 12.6 10.8 89 3 18   100.91     LegendNANA
19:00 11.9 10.1 89 2 16   100.93     LegendNANA
20:00 11.5 9.5 87 1 18   100.96     LegendNANA
21:00 11.1 8.0 81 36 16   101.00     LegendNANA
22:00 10.8 7.2 78 36 17   100.98     LegendNANA
23:00 10.4 6.6 77 35 17   100.99     LegendNANA

Notes on Data Quality.

Legend

  • E = Estimated
  • M = Missing
  • NA = Not Available*
  • [empty] = Indicates an unobserved value
Date modified: